#datetime,building,power
2023-01-04T00:00:00,mcc,37.62
2023-01-04T00:01:00,mcc,38.93
2023-01-04T00:02:00,mcc,39.24
2023-01-04T00:03:00,mcc,35.93
2023-01-04T00:04:00,mcc,38.18
2023-01-04T00:05:00,mcc,35.71
2023-01-04T00:06:00,mcc,35.40
2023-01-04T00:07:00,mcc,34.72
2023-01-04T00:08:00,mcc,33.91
2023-01-04T00:09:00,mcc,32.90
2023-01-04T00:10:00,mcc,32.85
2023-01-04T00:11:00,mcc,45.12
2023-01-04T00:12:00,mcc,35.92
2023-01-04T00:13:00,mcc,35.04
2023-01-04T00:14:00,mcc,36.44
2023-01-04T00:15:00,mcc,32.99
2023-01-04T00:16:00,mcc,31.83
2023-01-04T00:17:00,mcc,31.28
2023-01-04T00:18:00,mcc,34.09
2023-01-04T00:19:00,mcc,32.86
2023-01-04T00:20:00,mcc,33.49
2023-01-04T00:21:00,mcc,35.61
2023-01-04T00:22:00,mcc,32.97
2023-01-04T00:23:00,mcc,35.73
2023-01-04T00:24:00,mcc,43.50
2023-01-04T00:25:00,mcc,43.51
2023-01-04T00:26:00,mcc,46.93
2023-01-04T00:27:00,mcc,46.30
2023-01-04T00:28:00,mcc,39.08
2023-01-04T00:29:00,mcc,37.88
2023-01-04T00:30:00,mcc,36.51
2023-01-04T00:31:00,mcc,38.06
2023-01-04T00:32:00,mcc,43.17
2023-01-04T00:33:00,mcc,35.05
2023-01-04T00:34:00,mcc,35.74
2023-01-04T00:35:00,mcc,31.73
2023-01-04T00:36:00,mcc,32.75
2023-01-04T00:37:00,mcc,36.85
2023-01-04T00:38:00,mcc,35.82
2023-01-04T00:39:00,mcc,38.94
2023-01-04T00:40:00,mcc,35.45
2023-01-04T00:41:00,mcc,35.76
2023-01-04T00:42:00,mcc,35.24
2023-01-04T00:43:00,mcc,34.23
2023-01-04T00:44:00,mcc,37.86
2023-01-04T00:45:00,mcc,35.75
2023-01-04T00:46:00,mcc,35.81
2023-01-04T00:47:00,mcc,38.50
2023-01-04T00:48:00,mcc,36.67
2023-01-04T00:49:00,mcc,38.49
2023-01-04T00:50:00,mcc,40.64
2023-01-04T00:51:00,mcc,46.52
2023-01-04T00:52:00,mcc,38.31
2023-01-04T00:53:00,mcc,38.62
2023-01-04T00:54:00,mcc,38.88
2023-01-04T00:55:00,mcc,37.97
2023-01-04T00:56:00,mcc,36.48
2023-01-04T00:57:00,mcc,37.58
2023-01-04T00:58:00,mcc,38.07
2023-01-04T00:59:00,mcc,37.48
2023-01-04T01:00:00,mcc,41.26
2023-01-04T01:01:00,mcc,37.72
2023-01-04T01:02:00,mcc,37.29
2023-01-04T01:03:00,mcc,37.01
2023-01-04T01:04:00,mcc,36.42
2023-01-04T01:05:00,mcc,36.61
2023-01-04T01:06:00,mcc,37.65
2023-01-04T01:07:00,mcc,38.97
2023-01-04T01:08:00,mcc,36.22
2023-01-04T01:09:00,mcc,35.84
2023-01-04T01:10:00,mcc,37.77
2023-01-04T01:11:00,mcc,37.55
2023-01-04T01:12:00,mcc,36.12
2023-01-04T01:13:00,mcc,40.62
2023-01-04T01:14:00,mcc,38.06
2023-01-04T01:15:00,mcc,38.64
2023-01-04T01:16:00,mcc,38.56
2023-01-04T01:17:00,mcc,38.57
2023-01-04T01:18:00,mcc,37.99
2023-01-04T01:19:00,mcc,39.23
2023-01-04T01:20:00,mcc,52.55
2023-01-04T01:21:00,mcc,49.06
2023-01-04T01:22:00,mcc,46.17
2023-01-04T01:23:00,mcc,47.23
2023-01-04T01:24:00,mcc,35.88
2023-01-04T01:25:00,mcc,37.00
2023-01-04T01:26:00,mcc,39.40
2023-01-04T01:27:00,mcc,37.20
2023-01-04T01:28:00,mcc,35.52
2023-01-04T01:29:00,mcc,34.45
2023-01-04T01:30:00,mcc,32.85
2023-01-04T01:31:00,mcc,33.36
2023-01-04T01:32:00,mcc,31.73
2023-01-04T01:33:00,mcc,34.48
2023-01-04T01:34:00,mcc,32.61
2023-01-04T01:35:00,mcc,33.15
2023-01-04T01:36:00,mcc,31.06
2023-01-04T01:37:00,mcc,31.50
2023-01-04T01:38:00,mcc,31.46
2023-01-04T01:39:00,mcc,33.33
2023-01-04T01:40:00,mcc,33.49
2023-01-04T01:41:00,mcc,36.16
2023-01-04T01:42:00,mcc,36.57
2023-01-04T01:43:00,mcc,37.96
2023-01-04T01:44:00,mcc,34.34
2023-01-04T01:45:00,mcc,34.75
2023-01-04T01:46:00,mcc,36.83
2023-01-04T01:47:00,mcc,34.32
2023-01-04T01:48:00,mcc,32.65
2023-01-04T01:49:00,mcc,34.12
2023-01-04T01:50:00,mcc,32.58
2023-01-04T01:51:00,mcc,35.94
2023-01-04T01:52:00,mcc,37.10
2023-01-04T01:53:00,mcc,35.57
2023-01-04T01:54:00,mcc,36.31
2023-01-04T01:55:00,mcc,35.45
2023-01-04T01:56:00,mcc,37.62
2023-01-04T01:57:00,mcc,33.86
2023-01-04T01:58:00,mcc,34.09
2023-01-04T01:59:00,mcc,35.10
2023-01-04T02:00:00,mcc,33.01
2023-01-04T02:01:00,mcc,35.97
2023-01-04T02:02:00,mcc,35.33
2023-01-04T02:03:00,mcc,35.01
2023-01-04T02:04:00,mcc,34.60
2023-01-04T02:05:00,mcc,35.94
2023-01-04T02:06:00,mcc,36.35
2023-01-04T02:07:00,mcc,39.37
2023-01-04T02:08:00,mcc,39.95
2023-01-04T02:09:00,mcc,49.16
2023-01-04T02:10:00,mcc,37.70
2023-01-04T02:11:00,mcc,34.84
2023-01-04T02:12:00,mcc,37.62
2023-01-04T02:13:00,mcc,33.77
2023-01-04T02:14:00,mcc,34.03
2023-01-04T02:15:00,mcc,36.78
2023-01-04T02:16:00,mcc,34.94
2023-01-04T02:17:00,mcc,34.39
2023-01-04T02:18:00,mcc,32.33
2023-01-04T02:19:00,mcc,32.57
2023-01-04T02:20:00,mcc,33.95
2023-01-04T02:21:00,mcc,33.15
2023-01-04T02:22:00,mcc,35.04
2023-01-04T02:23:00,mcc,33.36
2023-01-04T02:24:00,mcc,32.22
2023-01-04T02:25:00,mcc,33.36
2023-01-04T02:26:00,mcc,32.15
2023-01-04T02:27:00,mcc,33.33
2023-01-04T02:28:00,mcc,34.33
2023-01-04T02:29:00,mcc,33.72
2023-01-04T02:30:00,mcc,34.03
2023-01-04T02:31:00,mcc,34.07
2023-01-04T02:32:00,mcc,36.29
2023-01-04T02:33:00,mcc,35.41
2023-01-04T02:34:00,mcc,37.52
2023-01-04T02:35:00,mcc,39.55
2023-01-04T02:36:00,mcc,36.89
2023-01-04T02:37:00,mcc,36.32
2023-01-04T02:38:00,mcc,39.13
2023-01-04T02:39:00,mcc,35.96
2023-01-04T02:40:00,mcc,34.93
2023-01-04T02:41:00,mcc,32.89
2023-01-04T02:42:00,mcc,32.38
2023-01-04T02:43:00,mcc,32.73
2023-01-04T02:44:00,mcc,33.37
2023-01-04T02:45:00,mcc,34.36
2023-01-04T02:46:00,mcc,33.27
2023-01-04T02:47:00,mcc,33.95
2023-01-04T02:48:00,mcc,37.19
2023-01-04T02:49:00,mcc,35.69
2023-01-04T02:50:00,mcc,35.45
2023-01-04T02:51:00,mcc,36.24
2023-01-04T02:52:00,mcc,34.57
2023-01-04T02:53:00,mcc,35.99
2023-01-04T02:54:00,mcc,37.89
2023-01-04T02:55:00,mcc,36.54
2023-01-04T02:56:00,mcc,35.42
2023-01-04T02:57:00,mcc,35.48
2023-01-04T02:58:00,mcc,38.15
2023-01-04T02:59:00,mcc,37.99
2023-01-04T03:00:00,mcc,37.43
2023-01-04T03:01:00,mcc,39.52
2023-01-04T03:02:00,mcc,36.58
2023-01-04T03:03:00,mcc,36.19
2023-01-04T03:04:00,mcc,38.32
2023-01-04T03:05:00,mcc,37.43
2023-01-04T03:06:00,mcc,35.18
2023-01-04T03:07:00,mcc,36.73
2023-01-04T03:08:00,mcc,43.95
2023-01-04T03:09:00,mcc,36.77
2023-01-04T03:10:00,mcc,35.49
2023-01-04T03:11:00,mcc,35.81
2023-01-04T03:12:00,mcc,34.99
2023-01-04T03:13:00,mcc,34.38
2023-01-04T03:14:00,mcc,37.61
2023-01-04T03:15:00,mcc,34.50
2023-01-04T03:16:00,mcc,35.06
2023-01-04T03:17:00,mcc,36.71
2023-01-04T03:18:00,mcc,34.84
2023-01-04T03:19:00,mcc,35.28
2023-01-04T03:20:00,mcc,37.55
2023-01-04T03:21:00,mcc,34.41
2023-01-04T03:22:00,mcc,35.21
2023-01-04T03:23:00,mcc,34.03
2023-01-04T03:24:00,mcc,33.95
2023-01-04T03:25:00,mcc,36.05
2023-01-04T03:26:00,mcc,34.63
2023-01-04T03:27:00,mcc,39.05
2023-01-04T03:28:00,mcc,45.74
2023-01-04T03:29:00,mcc,37.34
2023-01-04T03:30:00,mcc,37.76
2023-01-04T03:31:00,mcc,34.47
2023-01-04T03:32:00,mcc,34.70
2023-01-04T03:33:00,mcc,35.89
2023-01-04T03:34:00,mcc,34.43
2023-01-04T03:35:00,mcc,34.63
2023-01-04T03:36:00,mcc,34.65
2023-01-04T03:37:00,mcc,35.41
2023-01-04T03:38:00,mcc,32.32
2023-01-04T03:39:00,mcc,32.48
2023-01-04T03:40:00,mcc,34.14
2023-01-04T03:41:00,mcc,33.95
2023-01-04T03:42:00,mcc,34.26
2023-01-04T03:43:00,mcc,36.24
2023-01-04T03:44:00,mcc,34.57
2023-01-04T03:45:00,mcc,35.65
2023-01-04T03:46:00,mcc,36.61
2023-01-04T03:47:00,mcc,35.11
2023-01-04T03:48:00,mcc,43.94
2023-01-04T03:49:00,mcc,35.78
2023-01-04T03:50:00,mcc,34.27
2023-01-04T03:51:00,mcc,35.77
2023-01-04T03:52:00,mcc,35.55
2023-01-04T03:53:00,mcc,36.62
2023-01-04T03:54:00,mcc,36.81
2023-01-04T03:55:00,mcc,38.70
2023-01-04T03:56:00,mcc,40.53
2023-01-04T03:57:00,mcc,37.47
2023-01-04T03:58:00,mcc,37.63
2023-01-04T03:59:00,mcc,39.47
2023-01-04T04:00:00,mcc,36.41
2023-01-04T04:01:00,mcc,37.84
2023-01-04T04:02:00,mcc,35.08
2023-01-04T04:03:00,mcc,38.22
2023-01-04T04:04:00,mcc,34.15
2023-01-04T04:05:00,mcc,33.41
2023-01-04T04:06:00,mcc,34.35
2023-01-04T04:07:00,mcc,33.56
2023-01-04T04:08:00,mcc,33.29
2023-01-04T04:09:00,mcc,36.81
2023-01-04T04:10:00,mcc,35.73
2023-01-04T04:11:00,mcc,34.65
2023-01-04T04:12:00,mcc,38.28
2023-01-04T04:13:00,mcc,35.04
2023-01-04T04:14:00,mcc,34.87
2023-01-04T04:15:00,mcc,34.09
2023-01-04T04:16:00,mcc,35.69
2023-01-04T04:17:00,mcc,36.55
2023-01-04T04:18:00,mcc,35.92
2023-01-04T04:19:00,mcc,36.12
2023-01-04T04:20:00,mcc,34.87
2023-01-04T04:21:00,mcc,36.68
2023-01-04T04:22:00,mcc,38.00
2023-01-04T04:23:00,mcc,34.48
2023-01-04T04:24:00,mcc,36.70
2023-01-04T04:25:00,mcc,39.69
2023-01-04T04:26:00,mcc,36.26
2023-01-04T04:27:00,mcc,35.54
2023-01-04T04:28:00,mcc,35.29
2023-01-04T04:29:00,mcc,34.88
2023-01-04T04:30:00,mcc,33.35
2023-01-04T04:31:00,mcc,31.82
2023-01-04T04:32:00,mcc,35.84
2023-01-04T04:33:00,mcc,32.91
2023-01-04T04:34:00,mcc,32.62
2023-01-04T04:35:00,mcc,42.60
2023-01-04T04:36:00,mcc,41.34
2023-01-04T04:37:00,mcc,42.24
2023-01-04T04:38:00,mcc,41.15
2023-01-04T04:39:00,mcc,33.33
2023-01-04T04:40:00,mcc,33.62
2023-01-04T04:41:00,mcc,32.75
2023-01-04T04:42:00,mcc,35.41
2023-01-04T04:43:00,mcc,34.38
2023-01-04T04:44:00,mcc,34.26
2023-01-04T04:45:00,mcc,36.15
2023-01-04T04:46:00,mcc,41.88
2023-01-04T04:47:00,mcc,36.13
2023-01-04T04:48:00,mcc,38.61
2023-01-04T04:49:00,mcc,34.87
2023-01-04T04:50:00,mcc,35.07
2023-01-04T04:51:00,mcc,34.34
2023-01-04T04:52:00,mcc,36.35
2023-01-04T04:53:00,mcc,36.18
2023-01-04T04:54:00,mcc,36.20
2023-01-04T04:55:00,mcc,38.12
2023-01-04T04:56:00,mcc,37.85
2023-01-04T04:57:00,mcc,35.02
2023-01-04T04:58:00,mcc,35.67
2023-01-04T04:59:00,mcc,33.83
2023-01-04T05:00:00,mcc,34.02
2023-01-04T05:01:00,mcc,34.16
2023-01-04T05:02:00,mcc,34.68
2023-01-04T05:03:00,mcc,35.12
2023-01-04T05:04:00,mcc,33.68
2023-01-04T05:05:00,mcc,34.66
2023-01-04T05:06:00,mcc,33.12
2023-01-04T05:07:00,mcc,33.48
2023-01-04T05:08:00,mcc,38.83
2023-01-04T05:09:00,mcc,37.91
2023-01-04T05:10:00,mcc,36.59
2023-01-04T05:11:00,mcc,38.63
2023-01-04T05:12:00,mcc,37.51
2023-01-04T05:13:00,mcc,37.73
2023-01-04T05:14:00,mcc,36.60
2023-01-04T05:15:00,mcc,36.21
2023-01-04T05:16:00,mcc,36.37
2023-01-04T05:17:00,mcc,34.35
2023-01-04T05:18:00,mcc,33.63
2023-01-04T05:19:00,mcc,32.80
2023-01-04T05:20:00,mcc,33.76
2023-01-04T05:21:00,mcc,46.53
2023-01-04T05:22:00,mcc,44.22
2023-01-04T05:23:00,mcc,44.35
2023-01-04T05:24:00,mcc,38.40
2023-01-04T05:25:00,mcc,43.31
2023-01-04T05:26:00,mcc,34.64
2023-01-04T05:27:00,mcc,34.94
2023-01-04T05:28:00,mcc,34.68
2023-01-04T05:29:00,mcc,31.36
2023-01-04T05:30:00,mcc,31.45
2023-01-04T05:31:00,mcc,34.97
2023-01-04T05:32:00,mcc,33.18
2023-01-04T05:33:00,mcc,33.43
2023-01-04T05:34:00,mcc,37.38
2023-01-04T05:35:00,mcc,36.08
2023-01-04T05:36:00,mcc,34.52
2023-01-04T05:37:00,mcc,33.71
2023-01-04T05:38:00,mcc,35.31
2023-01-04T05:39:00,mcc,35.60
2023-01-04T05:40:00,mcc,36.32
2023-01-04T05:41:00,mcc,35.05
2023-01-04T05:42:00,mcc,33.10
2023-01-04T05:43:00,mcc,33.86
2023-01-04T05:44:00,mcc,44.71
2023-01-04T05:45:00,mcc,35.61
2023-01-04T05:46:00,mcc,34.97
2023-01-04T05:47:00,mcc,36.07
2023-01-04T05:48:00,mcc,32.85
2023-01-04T05:49:00,mcc,33.61
2023-01-04T05:50:00,mcc,36.65
2023-01-04T05:51:00,mcc,35.40
2023-01-04T05:52:00,mcc,35.68
2023-01-04T05:53:00,mcc,38.12
2023-01-04T05:54:00,mcc,33.32
2023-01-04T05:55:00,mcc,32.55
2023-01-04T05:56:00,mcc,32.19
2023-01-04T05:57:00,mcc,32.19
2023-01-04T05:58:00,mcc,32.36
2023-01-04T05:59:00,mcc,31.95
2023-01-04T06:00:00,mcc,36.06
2023-01-04T06:01:00,mcc,34.33
2023-01-04T06:02:00,mcc,35.09
2023-01-04T06:03:00,mcc,45.32
2023-01-04T06:04:00,mcc,35.70
2023-01-04T06:05:00,mcc,35.38
2023-01-04T06:06:00,mcc,33.69
2023-01-04T06:07:00,mcc,35.21
2023-01-04T06:08:00,mcc,34.04
2023-01-04T06:09:00,mcc,33.01
2023-01-04T06:10:00,mcc,40.77
2023-01-04T06:11:00,mcc,40.15
2023-01-04T06:12:00,mcc,41.41
2023-01-04T06:13:00,mcc,43.01
2023-01-04T06:14:00,mcc,40.66
2023-01-04T06:15:00,mcc,42.04
2023-01-04T06:16:00,mcc,44.70
2023-01-04T06:17:00,mcc,43.63
2023-01-04T06:18:00,mcc,44.57
2023-01-04T06:19:00,mcc,45.09
2023-01-04T06:20:00,mcc,45.11
2023-01-04T06:21:00,mcc,49.36
2023-01-04T06:22:00,mcc,47.40
2023-01-04T06:23:00,mcc,46.11
2023-01-04T06:24:00,mcc,46.90
2023-01-04T06:25:00,mcc,45.08
2023-01-04T06:26:00,mcc,47.32
2023-01-04T06:27:00,mcc,42.99
2023-01-04T06:28:00,mcc,47.18
2023-01-04T06:29:00,mcc,58.94
2023-01-04T06:30:00,mcc,45.83
2023-01-04T06:31:00,mcc,57.40
2023-01-04T06:32:00,mcc,51.91
2023-01-04T06:33:00,mcc,50.03
2023-01-04T06:34:00,mcc,49.88
2023-01-04T06:35:00,mcc,52.95
2023-01-04T06:36:00,mcc,60.91
2023-01-04T06:37:00,mcc,58.06
2023-01-04T06:38:00,mcc,60.22
2023-01-04T06:39:00,mcc,62.74
2023-01-04T06:40:00,mcc,61.65
2023-01-04T06:41:00,mcc,64.48
2023-01-04T06:42:00,mcc,66.27
2023-01-04T06:43:00,mcc,54.75
2023-01-04T06:44:00,mcc,54.96
2023-01-04T06:45:00,mcc,55.75
2023-01-04T06:46:00,mcc,55.15
2023-01-04T06:47:00,mcc,55.74
2023-01-04T06:48:00,mcc,55.38
2023-01-04T06:49:00,mcc,58.31
2023-01-04T06:50:00,mcc,47.40
2023-01-04T06:51:00,mcc,60.76
2023-01-04T06:52:00,mcc,59.66
2023-01-04T06:53:00,mcc,56.68
2023-01-04T06:54:00,mcc,57.41
2023-01-04T06:55:00,mcc,58.69
2023-01-04T06:56:00,mcc,56.77
2023-01-04T06:57:00,mcc,56.33
2023-01-04T06:58:00,mcc,52.89
2023-01-04T06:59:00,mcc,59.48
2023-01-04T07:00:00,mcc,50.97
2023-01-04T07:01:00,mcc,51.66
2023-01-04T07:02:00,mcc,53.02
2023-01-04T07:03:00,mcc,69.69
2023-01-04T07:04:00,mcc,53.57
2023-01-04T07:05:00,mcc,46.40
2023-01-04T07:06:00,mcc,47.82
2023-01-04T07:07:00,mcc,46.28
2023-01-04T07:08:00,mcc,45.10
2023-01-04T07:09:00,mcc,55.98
2023-01-04T07:10:00,mcc,54.26
2023-01-04T07:11:00,mcc,69.49
2023-01-04T07:12:00,mcc,44.80
2023-01-04T07:13:00,mcc,44.27
2023-01-04T07:14:00,mcc,44.47
2023-01-04T07:15:00,mcc,47.49
2023-01-04T07:16:00,mcc,55.59
2023-01-04T07:17:00,mcc,53.81
2023-01-04T07:18:00,mcc,57.65
2023-01-04T07:19:00,mcc,46.96
2023-01-04T07:20:00,mcc,44.19
2023-01-04T07:21:00,mcc,47.61
2023-01-04T07:22:00,mcc,47.46
2023-01-04T07:23:00,mcc,48.64
2023-01-04T07:24:00,mcc,45.00
2023-01-04T07:25:00,mcc,42.19
2023-01-04T07:26:00,mcc,40.68
2023-01-04T07:27:00,mcc,42.52
2023-01-04T07:28:00,mcc,40.95
2023-01-04T07:29:00,mcc,43.88
2023-01-04T07:30:00,mcc,45.01
2023-01-04T07:31:00,mcc,57.10
2023-01-04T07:32:00,mcc,44.18
2023-01-04T07:33:00,mcc,43.14
2023-01-04T07:34:00,mcc,45.06
2023-01-04T07:35:00,mcc,57.18
2023-01-04T07:36:00,mcc,46.08
2023-01-04T07:37:00,mcc,54.88
2023-01-04T07:38:00,mcc,47.96
2023-01-04T07:39:00,mcc,56.22
2023-01-04T07:40:00,mcc,57.06
2023-01-04T07:41:00,mcc,55.63
2023-01-04T07:42:00,mcc,46.87
2023-01-04T07:43:00,mcc,48.21
2023-01-04T07:44:00,mcc,48.52
2023-01-04T07:45:00,mcc,46.54
2023-01-04T07:46:00,mcc,46.82
2023-01-04T07:47:00,mcc,44.29
2023-01-04T07:48:00,mcc,48.19
2023-01-04T07:49:00,mcc,48.13
2023-01-04T07:50:00,mcc,48.17
2023-01-04T07:51:00,mcc,54.61
2023-01-04T07:52:00,mcc,53.94
2023-01-04T07:53:00,mcc,45.82
2023-01-04T07:54:00,mcc,56.91
2023-01-04T07:55:00,mcc,62.21
2023-01-04T07:56:00,mcc,47.15
2023-01-04T07:57:00,mcc,56.86
2023-01-04T07:58:00,mcc,54.97
2023-01-04T07:59:00,mcc,49.00
2023-01-04T08:00:00,mcc,52.40
2023-01-04T08:01:00,mcc,48.31
2023-01-04T08:02:00,mcc,47.40
2023-01-04T08:03:00,mcc,45.22
2023-01-04T08:04:00,mcc,64.81
2023-01-04T08:05:00,mcc,51.47
2023-01-04T08:06:00,mcc,52.41
2023-01-04T08:07:00,mcc,53.45
2023-01-04T08:08:00,mcc,51.24
2023-01-04T08:09:00,mcc,49.77
2023-01-04T08:10:00,mcc,53.51
2023-01-04T08:11:00,mcc,49.48
2023-01-04T08:12:00,mcc,49.28
2023-01-04T08:13:00,mcc,50.01
2023-01-04T08:14:00,mcc,55.77
2023-01-04T08:15:00,mcc,48.02
2023-01-04T08:16:00,mcc,47.72
2023-01-04T08:17:00,mcc,57.28
2023-01-04T08:18:00,mcc,52.89
2023-01-04T08:19:00,mcc,52.84
2023-01-04T08:20:00,mcc,54.21
2023-01-04T08:21:00,mcc,50.95
2023-01-04T08:22:00,mcc,49.94
2023-01-04T08:23:00,mcc,57.96
2023-01-04T08:24:00,mcc,46.25
2023-01-04T08:25:00,mcc,45.72
2023-01-04T08:26:00,mcc,46.72
2023-01-04T08:27:00,mcc,45.66
2023-01-04T08:28:00,mcc,47.38
2023-01-04T08:29:00,mcc,54.30
2023-01-04T08:30:00,mcc,46.56
2023-01-04T08:31:00,mcc,47.33
2023-01-04T08:32:00,mcc,49.67
2023-01-04T08:33:00,mcc,51.82
2023-01-04T08:34:00,mcc,50.90
2023-01-04T08:35:00,mcc,51.12
2023-01-04T08:36:00,mcc,58.87
2023-01-04T08:37:00,mcc,48.85
2023-01-04T08:38:00,mcc,48.29
2023-01-04T08:39:00,mcc,50.61
2023-01-04T08:40:00,mcc,50.60
2023-01-04T08:41:00,mcc,68.62
2023-01-04T08:42:00,mcc,60.89
2023-01-04T08:43:00,mcc,56.51
2023-01-04T08:44:00,mcc,51.59
2023-01-04T08:45:00,mcc,68.37
2023-01-04T08:46:00,mcc,59.83
2023-01-04T08:47:00,mcc,57.24
2023-01-04T08:48:00,mcc,59.42
2023-01-04T08:49:00,mcc,62.05
2023-01-04T08:50:00,mcc,59.83
2023-01-04T08:51:00,mcc,82.13
2023-01-04T08:52:00,mcc,57.52
2023-01-04T08:53:00,mcc,58.58
2023-01-04T08:54:00,mcc,59.82
2023-01-04T08:55:00,mcc,60.89
2023-01-04T08:56:00,mcc,64.48
2023-01-04T08:57:00,mcc,61.98
2023-01-04T08:58:00,mcc,60.66
2023-01-04T08:59:00,mcc,63.26
2023-01-04T09:00:00,mcc,59.58
2023-01-04T09:01:00,mcc,68.69
2023-01-04T09:02:00,mcc,63.59
2023-01-04T09:03:00,mcc,59.82
2023-01-04T09:04:00,mcc,59.64
2023-01-04T09:05:00,mcc,61.19
2023-01-04T09:06:00,mcc,62.40
2023-01-04T09:07:00,mcc,75.15
2023-01-04T09:08:00,mcc,59.75
2023-01-04T09:09:00,mcc,62.15
2023-01-04T09:10:00,mcc,58.81
2023-01-04T09:11:00,mcc,64.76
2023-01-04T09:12:00,mcc,55.70
2023-01-04T09:13:00,mcc,55.54
2023-01-04T09:14:00,mcc,63.13
2023-01-04T09:15:00,mcc,57.52
2023-01-04T09:16:00,mcc,57.14
2023-01-04T09:17:00,mcc,56.99
2023-01-04T09:18:00,mcc,58.28
2023-01-04T09:19:00,mcc,57.90
2023-01-04T09:20:00,mcc,65.19
2023-01-04T09:21:00,mcc,58.04
2023-01-04T09:22:00,mcc,75.51
2023-01-04T09:23:00,mcc,59.18
2023-01-04T09:24:00,mcc,60.01
2023-01-04T09:25:00,mcc,63.94
2023-01-04T09:26:00,mcc,67.91
2023-01-04T09:27:00,mcc,59.73
2023-01-04T09:28:00,mcc,60.97
2023-01-04T09:29:00,mcc,66.45
2023-01-04T09:30:00,mcc,76.28
2023-01-04T09:31:00,mcc,61.57
2023-01-04T09:32:00,mcc,59.23
2023-01-04T09:33:00,mcc,58.14
2023-01-04T09:34:00,mcc,59.21
2023-01-04T09:35:00,mcc,58.00
2023-01-04T09:36:00,mcc,58.95
2023-01-04T09:37:00,mcc,58.79
2023-01-04T09:38:00,mcc,57.70
2023-01-04T09:39:00,mcc,65.05
2023-01-04T09:40:00,mcc,55.45
2023-01-04T09:41:00,mcc,56.81
2023-01-04T09:42:00,mcc,56.75
2023-01-04T09:43:00,mcc,56.03
2023-01-04T09:44:00,mcc,56.82
2023-01-04T09:45:00,mcc,57.44
2023-01-04T09:46:00,mcc,57.63
2023-01-04T09:47:00,mcc,57.32
2023-01-04T09:48:00,mcc,61.36
2023-01-04T09:49:00,mcc,59.37
2023-01-04T09:50:00,mcc,60.61
2023-01-04T09:51:00,mcc,58.45
2023-01-04T09:52:00,mcc,63.50
2023-01-04T09:53:00,mcc,55.44
2023-01-04T09:54:00,mcc,56.80
2023-01-04T09:55:00,mcc,57.15
2023-01-04T09:56:00,mcc,75.35
2023-01-04T09:57:00,mcc,66.87
2023-01-04T09:58:00,mcc,74.54
2023-01-04T09:59:00,mcc,65.36
2023-01-04T10:00:00,mcc,57.90
2023-01-04T10:01:00,mcc,56.91
2023-01-04T10:02:00,mcc,58.54
2023-01-04T10:03:00,mcc,58.46
2023-01-04T10:04:00,mcc,68.25
2023-01-04T10:05:00,mcc,57.75
2023-01-04T10:06:00,mcc,56.60
2023-01-04T10:07:00,mcc,59.81
2023-01-04T10:08:00,mcc,58.53
2023-01-04T10:09:00,mcc,67.40
2023-01-04T10:10:00,mcc,69.42
2023-01-04T10:11:00,mcc,65.82
2023-01-04T10:12:00,mcc,68.18
2023-01-04T10:13:00,mcc,70.28
2023-01-04T10:14:00,mcc,81.60
2023-01-04T10:15:00,mcc,72.94
2023-01-04T10:16:00,mcc,60.84
2023-01-04T10:17:00,mcc,60.06
2023-01-04T10:18:00,mcc,60.12
2023-01-04T10:19:00,mcc,67.66
2023-01-04T10:20:00,mcc,62.82
2023-01-04T10:21:00,mcc,60.43
2023-01-04T10:22:00,mcc,69.49
2023-01-04T10:23:00,mcc,69.85
2023-01-04T10:24:00,mcc,68.81
2023-01-04T10:25:00,mcc,94.39
2023-01-04T10:26:00,mcc,73.33
2023-01-04T10:27:00,mcc,71.45
2023-01-04T10:28:00,mcc,71.26
2023-01-04T10:29:00,mcc,64.51
2023-01-04T10:30:00,mcc,62.62
2023-01-04T10:31:00,mcc,69.46
2023-01-04T10:32:00,mcc,69.80
2023-01-04T10:33:00,mcc,64.44
2023-01-04T10:34:00,mcc,69.40
2023-01-04T10:35:00,mcc,70.98
2023-01-04T10:36:00,mcc,65.64
2023-01-04T10:37:00,mcc,73.06
2023-01-04T10:38:00,mcc,65.67
2023-01-04T10:39:00,mcc,76.37
2023-01-04T10:40:00,mcc,72.06
2023-01-04T10:41:00,mcc,61.80
2023-01-04T10:42:00,mcc,71.78
2023-01-04T10:43:00,mcc,70.67
2023-01-04T10:44:00,mcc,72.29
2023-01-04T10:45:00,mcc,66.97
2023-01-04T10:46:00,mcc,76.74
2023-01-04T10:47:00,mcc,66.05
2023-01-04T10:48:00,mcc,63.43
2023-01-04T10:49:00,mcc,74.87
2023-01-04T10:50:00,mcc,74.46
2023-01-04T10:51:00,mcc,75.06
2023-01-04T10:52:00,mcc,75.08
2023-01-04T10:53:00,mcc,72.92
2023-01-04T10:54:00,mcc,64.93
2023-01-04T10:55:00,mcc,72.70
2023-01-04T10:56:00,mcc,73.21
2023-01-04T10:57:00,mcc,79.72
2023-01-04T10:58:00,mcc,90.22
2023-01-04T10:59:00,mcc,74.46
2023-01-04T11:00:00,mcc,73.41
2023-01-04T11:01:00,mcc,65.66
2023-01-04T11:02:00,mcc,69.20
2023-01-04T11:03:00,mcc,81.57
2023-01-04T11:04:00,mcc,65.48
2023-01-04T11:05:00,mcc,68.81
2023-01-04T11:06:00,mcc,61.78
2023-01-04T11:07:00,mcc,60.68
2023-01-04T11:08:00,mcc,67.11
2023-01-04T11:09:00,mcc,70.32
2023-01-04T11:10:00,mcc,63.99
2023-01-04T11:11:00,mcc,66.39
2023-01-04T11:12:00,mcc,64.23
2023-01-04T11:13:00,mcc,62.89
2023-01-04T11:14:00,mcc,65.05
2023-01-04T11:15:00,mcc,65.25
2023-01-04T11:16:00,mcc,63.55
2023-01-04T11:17:00,mcc,63.84
2023-01-04T11:18:00,mcc,64.44
2023-01-04T11:19:00,mcc,60.88
2023-01-04T11:20:00,mcc,58.85
2023-01-04T11:21:00,mcc,68.62
2023-01-04T11:22:00,mcc,76.84
2023-01-04T11:23:00,mcc,70.44
2023-01-04T11:24:00,mcc,62.57
2023-01-04T11:25:00,mcc,75.07
2023-01-04T11:26:00,mcc,66.08
2023-01-04T11:27:00,mcc,65.73
2023-01-04T11:28:00,mcc,67.64
2023-01-04T11:29:00,mcc,72.38
2023-01-04T11:30:00,mcc,62.02
2023-01-04T11:31:00,mcc,64.02
2023-01-04T11:32:00,mcc,59.80
2023-01-04T11:33:00,mcc,60.36
2023-01-04T11:34:00,mcc,62.61
2023-01-04T11:35:00,mcc,63.46
2023-01-04T11:36:00,mcc,65.31
2023-01-04T11:37:00,mcc,63.87
2023-01-04T11:38:00,mcc,62.70
2023-01-04T11:39:00,mcc,65.23
2023-01-04T11:40:00,mcc,72.98
2023-01-04T11:41:00,mcc,87.82
2023-01-04T11:42:00,mcc,76.35
2023-01-04T11:43:00,mcc,68.67
2023-01-04T11:44:00,mcc,69.93
2023-01-04T11:45:00,mcc,63.59
2023-01-04T11:46:00,mcc,70.81
2023-01-04T11:47:00,mcc,91.39
2023-01-04T11:48:00,mcc,72.88
2023-01-04T11:49:00,mcc,71.67
2023-01-04T11:50:00,mcc,70.83
2023-01-04T11:51:00,mcc,71.84
2023-01-04T11:52:00,mcc,73.28
2023-01-04T11:53:00,mcc,70.36
2023-01-04T11:54:00,mcc,71.47
2023-01-04T11:55:00,mcc,67.86
2023-01-04T11:56:00,mcc,71.42
2023-01-04T11:57:00,mcc,72.36
2023-01-04T11:58:00,mcc,73.32
2023-01-04T11:59:00,mcc,74.21
2023-01-04T12:00:00,mcc,67.98
2023-01-04T12:01:00,mcc,73.99
2023-01-04T12:02:00,mcc,90.11
2023-01-04T12:03:00,mcc,73.95
2023-01-04T12:04:00,mcc,71.89
2023-01-04T12:05:00,mcc,66.01
2023-01-04T12:06:00,mcc,63.32
2023-01-04T12:07:00,mcc,65.72
2023-01-04T12:08:00,mcc,65.45
2023-01-04T12:09:00,mcc,66.53
2023-01-04T12:10:00,mcc,67.15
2023-01-04T12:11:00,mcc,71.47
2023-01-04T12:12:00,mcc,64.93
2023-01-04T12:13:00,mcc,67.34
2023-01-04T12:14:00,mcc,62.49
2023-01-04T12:15:00,mcc,70.98
2023-01-04T12:16:00,mcc,64.14
2023-01-04T12:17:00,mcc,64.22
2023-01-04T12:18:00,mcc,62.05
2023-01-04T12:19:00,mcc,71.46
2023-01-04T12:20:00,mcc,70.82
2023-01-04T12:21:00,mcc,63.82
2023-01-04T12:22:00,mcc,63.46
2023-01-04T12:23:00,mcc,66.72
2023-01-04T12:24:00,mcc,74.81
2023-01-04T12:25:00,mcc,62.49
2023-01-04T12:26:00,mcc,64.62
2023-01-04T12:27:00,mcc,63.26
2023-01-04T12:28:00,mcc,62.54
2023-01-04T12:29:00,mcc,68.59
2023-01-04T12:30:00,mcc,60.64
2023-01-04T12:31:00,mcc,60.43
2023-01-04T12:32:00,mcc,63.23
2023-01-04T12:33:00,mcc,65.54
2023-01-04T12:34:00,mcc,73.41
2023-01-04T12:35:00,mcc,67.73
2023-01-04T12:36:00,mcc,68.53
2023-01-04T12:37:00,mcc,63.80
2023-01-04T12:38:00,mcc,78.64
2023-01-04T12:39:00,mcc,66.49
2023-01-04T12:40:00,mcc,66.12
2023-01-04T12:41:00,mcc,67.04
2023-01-04T12:42:00,mcc,69.35
2023-01-04T12:43:00,mcc,67.71
2023-01-04T12:44:00,mcc,66.20
2023-01-04T12:45:00,mcc,68.75
2023-01-04T12:46:00,mcc,66.40
2023-01-04T12:47:00,mcc,73.72
2023-01-04T12:48:00,mcc,65.01
2023-01-04T12:49:00,mcc,65.04
2023-01-04T12:50:00,mcc,63.12
2023-01-04T12:51:00,mcc,88.74
2023-01-04T12:52:00,mcc,64.26
2023-01-04T12:53:00,mcc,65.46
2023-01-04T12:54:00,mcc,64.78
2023-01-04T12:55:00,mcc,65.76
2023-01-04T12:56:00,mcc,71.78
2023-01-04T12:57:00,mcc,64.42
2023-01-04T12:58:00,mcc,71.64
2023-01-04T12:59:00,mcc,65.27
2023-01-04T13:00:00,mcc,67.61
2023-01-04T13:01:00,mcc,76.54
2023-01-04T13:02:00,mcc,68.40
2023-01-04T13:03:00,mcc,64.99
2023-01-04T13:04:00,mcc,63.55
2023-01-04T13:05:00,mcc,72.84
2023-01-04T13:06:00,mcc,64.48
2023-01-04T13:07:00,mcc,61.87
2023-01-04T13:08:00,mcc,63.78
2023-01-04T13:09:00,mcc,63.12
2023-01-04T13:10:00,mcc,70.53
2023-01-04T13:11:00,mcc,64.70
2023-01-04T13:12:00,mcc,63.24
2023-01-04T13:13:00,mcc,79.60
2023-01-04T13:14:00,mcc,74.22
2023-01-04T13:15:00,mcc,65.76
2023-01-04T13:16:00,mcc,64.27
2023-01-04T13:17:00,mcc,72.17
2023-01-04T13:18:00,mcc,64.41